This is the latest recevied weather packets stored in our database for station/object PA3CPS. If no packets are shown the sender has not sent any weather packets the latest 10 day(s).
| Time | Temp. | Humidity | Pressure | Rain* | Wind** | Luminosity | Snow |
|---|---|---|---|---|---|---|---|
| 1777971238 | 10° C | 90% | 1011.2 hPa | 0 mm | - | 174 W/m² | - |
| 1777970937 | 10° C | 90% | 1011.3 hPa | 0 mm | - | 162 W/m² | - |
| 1777970636 | 10° C | 90% | 1011.1 hPa | 0 mm | - | 206 W/m² | - |
| 1777970334 | 9.44° C | 90% | 1011.1 hPa | 0 mm | - | 192 W/m² | - |
| 1777970033 | 9.44° C | 91% | 1011.2 hPa | 0 mm | - | 204 W/m² | - |
| 1777969731 | 9.44° C | 91% | 1011.2 hPa | 0 mm | - | 155 W/m² | - |
| 1777969428 | 9.44° C | 91% | 1011.2 hPa | 0 mm | - | 178 W/m² | - |
| 1777969125 | 9.44° C | 91% | 1011.2 hPa | 0 mm | - | 160 W/m² | - |
| 1777968823 | 9.44° C | 92% | 1011.2 hPa | 0 mm | - | 221 W/m² | - |
| 1777968523 | 9.44° C | 92% | 1011.2 hPa | 0 mm | - | 158 W/m² | - |
| 1777968217 | 9.44° C | 92% | 1011.2 hPa | 0 mm | - | 221 W/m² | - |
| 1777967918 | 9.44° C | 93% | 1011.1 hPa | 0 mm | - | 204 W/m² | - |
| 1777967614 | 9.44° C | 93% | 1011.1 hPa | 0 mm | - | 287 W/m² | - |
| 1777967312 | 9.44° C | 93% | 1011 hPa | 0 mm | - | 325 W/m² | - |
| 1777967013 | 8.89° C | 93% | 1011.2 hPa | 0 mm | - | 230 W/m² | - |
| 1777966711 | 8.89° C | 93% | 1011.2 hPa | 0 mm | - | 171 W/m² | - |
| 1777966412 | 8.89° C | 93% | 1011.3 hPa | 0 mm | - | 171 W/m² | - |
| 1777966112 | 8.89° C | 93% | 1011.4 hPa | 0 mm | - | 137 W/m² | - |
| 1777965815 | 8.89° C | 93% | 1011.4 hPa | 0 mm | - | 120 W/m² | - |
| 1777965512 | 8.89° C | 93% | 1011.5 hPa | 0 mm | - | 86 W/m² | - |
| 1777965211 | 8.89° C | 93% | 1011.6 hPa | 0 mm | - | 102 W/m² | - |
| 1777964912 | 8.89° C | 94% | 1011.5 hPa | 0 mm | - | 102 W/m² | - |
| 1777964611 | 8.89° C | 94% | 1011.7 hPa | 0 mm | - | 86 W/m² | - |
| 1777964311 | 8.89° C | 94% | 1011.7 hPa | 0 mm | - | 77 W/m² | - |
| 1777964011 | 8.89° C | 94% | 1011.8 hPa | 0 mm | - | 79 W/m² | - |
* Rain latest hour (hover to see other rain measurements)
** Current wind speed in m/s (hover to see current wind gust speed)